HVN9977 VVTS-VVPQ

Flight info

Callsign HVN9977
Flight time 0h 30m
Altitude 20000
Route BACHU5A BACHU W17 TUNPO TUNPO1D
Aircraft B789/H-SDE1E2E3FGHIJ2J3J4J5M1RWXY/LB1D1

Departure

Time 2026-04-17 07:55
Airport Tan Son Nhat International Airport (VVTS)

Arrival

Time 2026-04-17 08:26
Airport Phú Quốc International Airport (VVPQ)
Time Latitude Longitude Altitude Speed Heading
2026-04-17 07:23 10.81760 106.66373 42 ft 0 kts 159°
2026-04-17 07:47 10.81770 106.66369 66 ft 4 kts 159°
2026-04-17 07:47 10.81796 106.66360 38 ft 4 kts 159°
2026-04-17 07:47 10.81820 106.66350 40 ft 4 kts 147°
2026-04-17 07:47 10.81837 106.66332 41 ft 4 kts 105°
2026-04-17 07:48 10.81836 106.66306 41 ft 4 kts 70°
2026-04-17 07:48 10.81827 106.66282 41 ft 2 kts 69°
2026-04-17 07:48 10.81826 106.66281 42 ft 11 kts 69°
2026-04-17 07:51 10.81830 106.66291 40 ft 3 kts 69°
2026-04-17 07:51 10.81839 106.66316 43 ft 5 kts 69°
2026-04-17 07:51 10.81855 106.66358 42 ft 8 kts 69°
2026-04-17 07:52 10.81877 106.66416 43 ft 10 kts 69°
2026-04-17 07:52 10.81905 106.66490 42 ft 12 kts 69°
2026-04-17 07:52 10.81939 106.66580 42 ft 14 kts 69°
2026-04-17 07:52 10.81977 106.66682 42 ft 16 kts 69°
2026-04-17 07:53 10.82020 106.66795 42 ft 18 kts 69°
2026-04-17 07:53 10.82086 106.66906 40 ft 18 kts 43°
2026-04-17 07:53 10.82170 106.66978 41 ft 15 kts 39°
2026-04-17 07:53 10.82239 106.67013 41 ft 10 kts
2026-04-17 07:54 10.82306 106.66985 40 ft 8 kts 322°
2026-04-17 07:54 10.82347 106.66935 40 ft 10 kts 295°
2026-04-17 07:54 10.82341 106.66874 40 ft 8 kts 249°
2026-04-17 07:54 10.82311 106.66794 38 ft 20 kts 249°
2026-04-17 07:55 10.82184 106.66457 38 ft 86 kts 249°
2026-04-17 07:55 10.81889 106.65679 44 ft 148 kts 248°
2026-04-17 07:55 10.81486 106.64587 463 ft 167 kts 248°
2026-04-17 07:55 10.81075 106.63465 1272 ft 175 kts 247°
2026-04-17 07:56 10.80622 106.62274 2015 ft 192 kts 246°
2026-04-17 07:56 10.80094 106.60914 2553 ft 221 kts 246°
2026-04-17 07:56 10.79496 106.59366 3072 ft 251 kts 247°
2026-04-17 07:56 10.78820 106.57638 3919 ft 267 kts 247°
2026-04-17 07:57 10.78126 106.55876 5126 ft 272 kts 247°
2026-04-17 07:57 10.77391 106.54054 6087 ft 285 kts 247°
2026-04-17 07:57 10.76607 106.52190 7132 ft 289 kts 247°
2026-04-17 07:57 10.75794 106.50296 7808 ft 303 kts 246°
2026-04-17 07:58 10.74930 106.48307 8046 ft 305 kts 246°
2026-04-17 07:58 10.74085 106.46369 9203 ft 297 kts 247°
2026-04-17 07:58 10.73234 106.44432 10190 ft 303 kts 246°
2026-04-17 07:58 10.72339 106.42403 10668 ft 328 kts 246°
2026-04-17 07:59 10.71384 106.40223 10940 ft 355 kts 246°
2026-04-17 07:59 10.70343 106.37825 11467 ft 369 kts 246°
2026-04-17 07:59 10.69312 106.35433 12387 ft 373 kts 246°
2026-04-17 07:59 10.68287 106.33031 13189 ft 377 kts 246°
2026-04-17 08:00 10.67253 106.30560 13954 ft 382 kts 246°
2026-04-17 08:00 10.66194 106.27998 14454 ft 394 kts 246°
2026-04-17 08:00 10.65149 106.25466 15265 ft 394 kts 246°
2026-04-17 08:00 10.64074 106.22842 15987 ft 398 kts 246°
2026-04-17 08:01 10.63025 106.20265 16672 ft 402 kts 246°
2026-04-17 08:01 10.61940 106.17596 17375 ft 404 kts 246°
2026-04-17 08:01 10.60864 106.14962 18188 ft 402 kts 246°
2026-04-17 08:01 10.59795 106.12346 18945 ft 400 kts 246°
2026-04-17 08:02 10.58731 106.09744 19632 ft 400 kts 246°
2026-04-17 08:02 10.57643 106.07105 19815 ft 407 kts 247°
2026-04-17 08:02 10.56551 106.04469 19813 ft 402 kts 246°
2026-04-17 08:02 10.55472 106.01863 19810 ft 400 kts 247°
2026-04-17 08:03 10.54397 105.99261 19816 ft 398 kts 247°
2026-04-17 08:03 10.53323 105.96661 19812 ft 400 kts 247°
2026-04-17 08:03 10.52244 105.94053 19815 ft 401 kts 247°
2026-04-17 08:03 10.51165 105.91445 19815 ft 400 kts 246°
2026-04-17 08:04 10.50088 105.88837 19809 ft 400 kts 247°
2026-04-17 08:04 10.49014 105.86233 19810 ft 400 kts 246°
2026-04-17 08:04 10.47935 105.83624 19812 ft 400 kts 246°
2026-04-17 08:04 10.46857 105.81017 19811 ft 400 kts 246°
2026-04-17 08:05 10.45981 105.78348 19815 ft 399 kts 256°
2026-04-17 08:05 10.45444 105.75576 19820 ft 400 kts 260°
2026-04-17 08:05 10.44998 105.72789 19821 ft 400 kts 259°
2026-04-17 08:05 10.44431 105.70020 19822 ft 400 kts 256°
2026-04-17 08:06 10.43782 105.67276 19823 ft 400 kts 256°
2026-04-17 08:06 10.43174 105.64522 19823 ft 400 kts 257°
2026-04-17 08:06 10.42613 105.61760 19817 ft 400 kts 258°
2026-04-17 08:06 10.42037 105.58993 19817 ft 400 kts 257°
2026-04-17 08:07 10.41437 105.56233 19817 ft 400 kts 257°
2026-04-17 08:07 10.40841 105.53476 19815 ft 400 kts 257°
2026-04-17 08:07 10.40123 105.50753 19823 ft 398 kts 249°
2026-04-17 08:07 10.39160 105.48148 19822 ft 401 kts 249°
2026-04-17 08:08 10.38186 105.45501 19821 ft 399 kts 249°
2026-04-17 08:08 10.37215 105.42863 19820 ft 399 kts 249°
2026-04-17 08:08 10.36244 105.40220 19820 ft 399 kts 249°
2026-04-17 08:08 10.35273 105.37581 19824 ft 399 kts 249°
2026-04-17 08:09 10.34301 105.34937 19818 ft 399 kts 249°
2026-04-17 08:09 10.33330 105.32301 19819 ft 399 kts 249°
2026-04-17 08:09 10.32358 105.29661 19819 ft 399 kts 249°
2026-04-17 08:09 10.31385 105.27020 19818 ft 399 kts 249°
2026-04-17 08:10 10.30415 105.24386 19818 ft 399 kts 249°
2026-04-17 08:10 10.29444 105.21750 19819 ft 398 kts 249°
2026-04-17 08:10 10.28473 105.19117 19821 ft 399 kts 249°
2026-04-17 08:10 10.27500 105.16478 19824 ft 399 kts 249°
2026-04-17 08:11 10.26528 105.13841 19819 ft 399 kts 249°
2026-04-17 08:11 10.25551 105.11193 19630 ft 402 kts 249°
2026-04-17 08:11 10.24570 105.08535 19193 ft 402 kts 249°
2026-04-17 08:11 10.23594 105.05890 18760 ft 398 kts 249°
2026-04-17 08:12 10.22628 105.03272 18310 ft 394 kts 249°
2026-04-17 08:12 10.21672 105.00683 17825 ft 391 kts 249°
2026-04-17 08:12 10.20717 104.98105 17318 ft 389 kts 249°
2026-04-17 08:12 10.19771 104.95541 16820 ft 387 kts 249°
2026-04-17 08:13 10.18827 104.92988 16442 ft 384 kts 249°
2026-04-17 08:13 10.17891 104.90464 16197 ft 383 kts 248°
2026-04-17 08:13 10.16951 104.87923 15980 ft 384 kts 249°
2026-04-17 08:14 10.15082 104.82854 15493 ft 383 kts 249°
2026-04-17 08:14 10.14144 104.80322 15262 ft 383 kts 249°
2026-04-17 08:14 10.13207 104.77796 15027 ft 382 kts 249°
2026-04-17 08:14 10.12274 104.75276 14797 ft 381 kts 249°
2026-04-17 08:15 10.11348 104.72772 14570 ft 379 kts 249°
2026-04-17 08:15 10.10419 104.70266 14230 ft 381 kts 249°
2026-04-17 08:15 10.09498 104.67781 13794 ft 371 kts 249°
2026-04-17 08:15 10.08601 104.65362 13294 ft 361 kts 249°
2026-04-17 08:16 10.07727 104.63004 12779 ft 352 kts 249°
2026-04-17 08:16 10.06883 104.60722 12270 ft 337 kts 250°
2026-04-17 08:16 10.06440 104.58466 11769 ft 322 kts 271°
2026-04-17 08:16 10.06710 104.56236 11287 ft 316 kts 281°
2026-04-17 08:17 10.07115 104.54061 10802 ft 311 kts 283°
2026-04-17 08:17 10.07544 104.51924 10330 ft 307 kts 283°
2026-04-17 08:17 10.07946 104.49813 9867 ft 304 kts 282°
2026-04-17 08:17 10.08330 104.47716 9374 ft 301 kts 282°
2026-04-17 08:18 10.08713 104.45639 8873 ft 299 kts 282°
2026-04-17 08:18 10.09103 104.43587 8385 ft 297 kts 282°
2026-04-17 08:18 10.09476 104.41616 7914 ft 296 kts 282°
2026-04-17 08:18 10.09857 104.39576 7431 ft 293 kts 282°
2026-04-17 08:19 10.10233 104.37543 6969 ft 293 kts 281°
2026-04-17 08:19 10.10616 104.35523 6502 ft 289 kts 282°
2026-04-17 08:19 10.11158 104.33588 6029 ft 283 kts 286°
2026-04-17 08:19 10.11614 104.31660 5540 ft 279 kts 283°
2026-04-17 08:20 10.12056 104.29755 5057 ft 277 kts 284°
2026-04-17 08:20 10.12540 104.27869 4644 ft 273 kts 284°
2026-04-17 08:20 10.13086 104.26058 4284 ft 264 kts 290°
2026-04-17 08:20 10.13603 104.24301 3932 ft 257 kts 284°
2026-04-17 08:21 10.14085 104.22579 3580 ft 251 kts 292°
2026-04-17 08:21 10.14726 104.20955 3232 ft 245 kts 285°
2026-04-17 08:21 10.15019 104.19275 2870 ft 234 kts 275°
2026-04-17 08:21 10.15183 104.17672 2512 ft 225 kts 273°
2026-04-17 08:22 10.15337 104.16106 2224 ft 220 kts 273°
2026-04-17 08:22 10.15482 104.14593 1984 ft 209 kts 274°
2026-04-17 08:22 10.15623 104.13195 1985 ft 192 kts 272°
2026-04-17 08:22 10.15750 104.11883 1981 ft 180 kts 273°
2026-04-17 08:23 10.15871 104.10663 1880 ft 170 kts 271°
2026-04-17 08:23 10.15980 104.09491 1673 ft 164 kts 270°
2026-04-17 08:23 10.16088 104.08356 1468 ft 159 kts 271°
2026-04-17 08:23 10.16196 104.07305 1289 ft 143 kts 269°
2026-04-17 08:24 10.16256 104.06642 1161 ft 143 kts 269°
2026-04-17 08:24 10.16333 104.05634 1022 ft 141 kts 270°
2026-04-17 08:24 10.16391 104.04654 885 ft 138 kts 269°
2026-04-17 08:24 10.16533 104.03662 702 ft 142 kts 276°
2026-04-17 08:25 10.16657 104.02686 541 ft 143 kts 270°
2026-04-17 08:25 10.16750 104.01669 419 ft 141 kts 270°
2026-04-17 08:25 10.16851 104.00689 121 ft 135 kts 271°
2026-04-17 08:25 10.16922 103.99869 66 ft 92 kts 277°
2026-04-17 08:26 10.16974 103.99398 63 ft 32 kts 275°
2026-04-17 08:26 10.16962 103.99320 61 ft 7 kts 224°
2026-04-17 08:26 10.16923 103.99306 64 ft 6 kts 185°
2026-04-17 08:26 10.16876 103.99302 64 ft 8 kts 184°
2026-04-17 08:27 10.16822 103.99312 68 ft 7 kts 141°
2026-04-17 08:27 10.16806 103.99357 64 ft 8 kts 99°
2026-04-17 08:27 10.16800 103.99421 63 ft 10 kts 95°
2026-04-17 08:27 10.16792 103.99502 70 ft 13 kts 96°
2026-04-17 08:28 10.16750 103.99550 63 ft 9 kts 166°
2026-04-17 08:28 10.16688 103.99548 64 ft 10 kts 185°
2026-04-17 08:28 10.16614 103.99542 65 ft 12 kts 185°
2026-04-17 08:28 10.16541 103.99532 66 ft 7 kts 189°
2026-04-17 08:29 10.16488 103.99524 61 ft 7 kts 187°
2026-04-17 08:29 10.16465 103.99521 63 ft 2 kts 187°
2026-04-17 08:29 10.16459 103.99521 64 ft 1 kts 187°
2026-04-17 08:29 10.16457 103.99520 65 ft 0 kts 187°